TimeCET,TemperatureF,Dew PointF,Humidity,Sea Level PressureIn,VisibilityMPH,Wind Direction,Wind SpeedMPH,Gust SpeedMPH,PrecipitationIn,Events,Conditions,WindDirDegrees,DateUTC
12:00 AM,24.8,19.4,80,29.83,3.7,NE,8.1,-,N/A,,Overcast,40,2013-01-17 23:00:00
1:00 AM,23.0,17.6,80,29.80,3.7,NE,8.1,-,N/A,,Overcast,50,2013-01-18 00:00:00
2:00 AM,23.0,15.8,74,29.80,4.3,NE,9.2,-,N/A,,Overcast,50,2013-01-18 01:00:00
4:00 AM,23.0,15.8,74,29.80,4.3,NE,15.0,-,N/A,,Overcast,40,2013-01-18 03:00:00
5:00 AM,23.0,15.8,74,29.80,4.3,NE,11.5,-,N/A,,Overcast,40,2013-01-18 04:00:00
6:00 AM,23.0,15.8,74,29.80,5.0,NE,13.8,-,N/A,,Overcast,40,2013-01-18 05:00:00
7:00 AM,21.2,15.8,80,29.77,5.0,NE,13.8,-,N/A,,Overcast,40,2013-01-18 06:00:00
8:00 AM,21.2,15.8,80,29.77,6.2,NNE,10.4,-,N/A,,Overcast,30,2013-01-18 07:00:00
9:00 AM,21.2,14.0,74,29.80,6.2,NNE,9.2,-,N/A,,Overcast,30,2013-01-18 08:00:00
9:47 AM,21.2,15.8,80,29.77,6.2,NE,15.0,26.5,N/A,,Overcast,40,2013-01-18 08:47:00
10:00 AM,23.0,15.8,74,29.77,6.2,NNE,11.5,-,N/A,,Overcast,30,2013-01-18 09:00:00
11:00 AM,23.0,14.0,68,29.74,6.2,NE,16.1,-,N/A,,Overcast,40,2013-01-18 10:00:00
11:03 AM,23.0,15.8,74,29.74,6.2,NNE,16.1,27.6,N/A,,Overcast,30,2013-01-18 10:03:00
11:58 AM,23.0,15.8,74,29.74,6.2,NE,16.1,29.9,N/A,,Overcast,40,2013-01-18 10:58:00
12:00 PM,23.0,15.8,74,29.74,6.2,NE,16.1,-,N/A,,Overcast,40,2013-01-18 11:00:00
1:00 PM,23.0,15.8,74,29.71,6.2,NE,18.4,-,N/A,,Overcast,40,2013-01-18 12:00:00
1:14 PM,23.0,15.8,74,29.71,6.2,NE,16.1,27.6,N/A,,Overcast,50,2013-01-18 12:14:00
2:00 PM,23.0,15.8,74,29.71,6.2,NE,13.8,-,N/A,,Overcast,40,2013-01-18 13:00:00
3:00 PM,23.0,17.6,80,29.71,6.2,NE,12.7,-,N/A,,Overcast,40,2013-01-18 14:00:00
4:00 PM,23.0,17.6,80,29.71,5.0,NE,11.5,-,N/A,,Overcast,40,2013-01-18 15:00:00
5:00 PM,23.0,17.6,80,29.68,3.7,NE,12.7,-,N/A,,Overcast,50,2013-01-18 16:00:00
5:30 PM,23.0,17.6,80,29.71,3.7,NE,15.0,26.5,N/A,Snow,Light Snow,40,2013-01-18 16:30:00
6:00 PM,23.0,17.6,80,29.68,3.7,NE,17.3,-,N/A,Snow,Light Snow,50,2013-01-18 17:00:00
7:00 PM,23.0,17.6,80,29.68,3.7,NE,16.1,-,N/A,Snow,Light Snow,50,2013-01-18 18:00:00
8:00 PM,23.0,17.6,80,29.68,3.7,NE,15.0,-,N/A,,Overcast,50,2013-01-18 19:00:00
8:25 PM,23.0,17.6,80,29.68,2.8,NE,11.5,-,N/A,Snow,Light Snow,50,2013-01-18 19:25:00
9:00 PM,23.0,19.4,86,29.65,2.2,NE,15.0,-,N/A,Snow,Light Snow,40,2013-01-18 20:00:00
10:00 PM,23.0,17.6,80,29.65,2.8,NNE,12.7,-,N/A,Snow,Light Snow,30,2013-01-18 21:00:00
10:48 PM,24.8,15.8,69,29.62,3.1,NE,11.5,-,N/A,,Overcast,40,2013-01-18 21:48:00
11:00 PM,24.8,15.8,69,29.65,3.1,NNE,12.7,-,N/A,,Overcast,30,2013-01-18 22:00:00
11:02 PM,24.8,15.8,69,29.62,3.1,NE,15.0,28.8,N/A,,Overcast,40,2013-01-18 22:02:00